Regional Weather Roundup
Issued by NWS

Home | Current Version | Previous Version | Text Only | Print | Product List | Glossary On
Versions: 1 2 3 4 5 6 7 8 9 10 11 12 13 14 15 16 17 18 19 20 21 22 23 24 25 26 27 28 29 30 31 32 33 34 35 36 37 38 39 40 41 42 43 44 45 46 47 48 49 50
000
ASUS43 KLSX 131710
RWRMO

WEATHER SUMMARY FOR MISSOURI
NATIONAL WEATHER SERVICE SPRINGFIELD MO
1100 AM CST SAT FEB 13 2016

NOTE: "FAIR" INDICATES FEW OR NO CLOUDS BELOW 12,000 FEET WITH NO
       SIGNIFICANT WEATHER AND/OR OBSTRUCTIONS TO VISIBILITY.
       CURRENT SKY AND/OR WEATHER CONDITIONS ARE NOT AVAILABLE FOR
       CHILLICOTHE AND FARMINGTON.

MOZ001>031-035>038-043-044-053-054-131800-
...NORTHERN AND WESTERN MISSOURI...

CITY           SKY/WX    TMP DP  RH WIND       PRES   REMARKS
KANSAS CTY INT CLOUDY    18   2  49 E9        30.57S WCI   7
KANSAS C DTWN  CLOUDY    19   3  49 E10       30.60R WCI   7
LEE`S SUMMIT   CLOUDY    18   3  52 E9        30.58S WCI   7
ST JOSEPH      CLOUDY    17   2  51 E9        30.59F WCI   6
CHILLICOTHE      N/A     14   0  53 E6        30.64F WCI   5
KIRKSVILLE     CLOUDY    12  -1  56 E6        30.63S WCI   3

$$
MOZ066>068-077>081-088>096-101>105-131800-
...SOUTHWEST MISSOURI...

CITY           SKY/WX    TMP DP  RH WIND       PRES   REMARKS
SPRINGFIELD    SUNNY     28  -1  28 E9        30.51F WCI  19
JOPLIN         SUNNY     32   3  29 SE10      30.50F WCI  24

$$
MOZ032>034-039>042-045>050-055>058-069>072-131800-
...CENTRAL MISSOURI...

CITY           SKY/WX    TMP DP  RH WIND       PRES   REMARKS
COLUMBIA       CLOUDY    17   1  49 NE8       30.61F WCI   7
JEFFERSON CITY PTSUNNY   17   1  49 E6        30.64F WCI   9
ROLLA          CLOUDY    17   1  49 E7        30.56F WCI   8
SEDALIA        CLOUDY    18   2  49 E9        30.61S WCI   7
WHITEMAN AFB   CLOUDY    18   3  52 E7        30.58F WCI   9
WARRENSBURG    CLOUDY    19   3  49 E7        30.60F WCI  10
OSAGE BEACH    CLOUDY    19   1  45 NE7       30.60R WCI  10

$$
MOZ051-052-059>065-131800-
...EAST CENTRAL MISSOURI...

CITY           SKY/WX    TMP DP  RH WIND       PRES   REMARKS
ST LOUIS INTL  MOSUNNY   18  -1  43 N5        30.66F WCI  11
SPIRIT OF STL  SUNNY     18   0  45 N3        30.66F
ST CHARLES     SUNNY     18   0  45 NE5       30.67F WCI  11

$$
MOZ072>076-082>087-097>100-106>115-131800-
...SOUTH CENTRAL AND SOUTHEAST MISSOURI...

CITY           SKY/WX    TMP DP  RH WIND       PRES   REMARKS
CAPE GIRARDEAU CLOUDY    20   5  52 NE9       30.64S WCI   9
FARMINGTON     CLOUDY    17   3  54 NE5       30.60F WCI  10
POPLAR BLUFF   CLOUDY    23   4  44 NE9       30.63F WCI  13
WEST PLAINS    SUNNY     26  -2  29 CALM      30.55S

$$



USA.gov is the U.S. government's official web portal to all federal, state and local government web resources and services.